This is the latest recevied weather packets stored in our database for station/object KE5QKR. If no packets are shown the sender has not sent any weather packets the latest 10 day(s).
| Time | Temp. | Humidity | Pressure | Rain* | Wind** | Luminosity | Snow |
|---|---|---|---|---|---|---|---|
| 1778004531 | 27.78° C | 67% | 1011.6 hPa | 0 mm | - | 896 W/m² | - |
| 1778004227 | 27.78° C | 69% | 1011.8 hPa | 0 mm | - | 268 W/m² | - |
| 1778003924 | 27.78° C | 65% | 1011.7 hPa | 0 mm | - | 332 W/m² | - |
| 1778003620 | 27.78° C | 67% | 1011.6 hPa | 0 mm | - | 687 W/m² | - |
| 1778003317 | 27.78° C | 68% | 1011.7 hPa | 0 mm | - | 527 W/m² | - |
| 1778003015 | 27.78° C | 68% | 1011.6 hPa | 0 mm | - | 463 W/m² | - |
| 1778002710 | 27.78° C | 68% | 1011.9 hPa | 0 mm | - | 913 W/m² | - |
| 1778002407 | 26.67° C | 69% | 1011.8 hPa | 0 mm | - | 899 W/m² | - |
| 1778002104 | 27.22° C | 69% | 1011.8 hPa | 0 mm | - | 549 W/m² | - |
| 1778001803 | 27.22° C | 68% | 1011.8 hPa | 0 mm | - | 804 W/m² | - |
| 1778001501 | 26.67° C | 70% | 1011.8 hPa | 0 mm | - | 859 W/m² | - |
| 1778001198 | 26.67° C | 70% | 1011.7 hPa | 0 mm | - | 737 W/m² | - |
| 1778000895 | 27.22° C | 70% | 1011.8 hPa | 0 mm | - | 756 W/m² | - |
| 1778000592 | 27.78° C | 69% | 1011.7 hPa | 0 mm | - | 263 W/m² | - |
| 1778000287 | 27.22° C | 69% | 1011.9 hPa | 0 mm | - | 839 W/m² | - |
| 1777999983 | 27.22° C | 69% | 1012 hPa | 0 mm | - | 691 W/m² | - |
| 1777999679 | 26.67° C | 68% | 1012 hPa | 0 mm | - | 473 W/m² | - |
| 1777999376 | 26.11° C | 73% | 1012.2 hPa | 0 mm | - | 721 W/m² | - |
| 1777999074 | 25.56° C | 74% | 1012.2 hPa | 0 mm | - | 243 W/m² | - |
| 1777998773 | 25° C | 74% | 1012 hPa | 0 mm | - | 323 W/m² | - |
| 1777998470 | 25.56° C | 74% | 1012.3 hPa | 0 mm | - | 447 W/m² | - |
| 1777998166 | 25.56° C | 74% | 1012.2 hPa | 0 mm | - | 597 W/m² | - |
| 1777997863 | 25.56° C | 73% | 1012.3 hPa | 0 mm | - | 339 W/m² | - |
| 1777997561 | 25.56° C | 72% | 1012.3 hPa | 0 mm | - | 498 W/m² | - |
| 1777997258 | 25.56° C | 74% | 1012.3 hPa | 0 mm | - | 432 W/m² | - |
* Rain latest hour (hover to see other rain measurements)
** Current wind speed in m/s (hover to see current wind gust speed)